Roanoke, VA

1:49 AM EDT on May 30, 2017 (GMT -0400)
Roanoke Regional-Woodrum

Weather History for KROA - December, 2014

Change the Weather History Date:

Wednesday, December 31, 2014

  Actual Average Record
Temperature  
Mean Temperature 33 °F 37 °F  
Max Temperature 39 °F 46 °F 72 °F (1992)
Min Temperature 26 °F 28 °F 3 °F (1917)
Degree Days  
Heating Degree Days 32 28  
Month to date heating degree days 697 806  
Since 1 July heating degree days 1575 1610  
Cooling Degree Days 0 0  
Month to date cooling degree days 0 0  
Year to date cooling degree days 1128 1208  
Moisture  
Dew Point 16 °F    
Average Humidity 51    
Maximum Humidity 69    
Minimum Humidity 32    
Precipitation  
Precipitation 0.00 in 0.08 in 2.50 in (1923)
Month to date precipitation 2.54 2.94  
Year to date precipitation 39.43 41.25  
Snow  
Snow 0.00 in - - ()
Month to date snowfall T  
Since 1 July snowfall 0.5  
Snow Depth 0.00 in    
Sea Level Pressure  
Sea Level Pressure 30.41 in    
Wind  
Wind Speed 7 mph (West)    
Max Wind Speed 21 mph    
Max Gust Speed 25 mph    
Visibility 10 miles    
Events      
T = Trace of Precipitation, MM = Missing Value Source: NWS Daily Summary

Daily Weather History Graph

Daily Weather History Graph

Search for Another Location

Airport or City:

Trip Planner

Search our weather history database for the weather conditions in past years. The results will help you decide how hot, cold, wet, or windy it might be!

Date:

Astronomy

Dec. 31, 2014 Rise Set
Actual Time 7:33 AM EST 5:12 PM EST
Civil Twilight 7:04 AM EST 5:41 PM EST
Nautical Twilight 6:32 AM EST 6:13 PM EST
Astronomical Twilight 6:00 AM EST 6:45 PM EST
Moon 1:59 PM EST (12/31) 3:02 AM EST (12/31)
Length of Visible Light 10h 36m
Length of Day
9h 38m
Waxing Gibbous, 80% of the Moon is Illuminated
Dec 31
Waxing Gibbous
Jan 4
Full
Jan 13
Last Quarter
Jan 20
New
Jan 26
First Quarter

Hourly Weather History & Observations

Time (EST) Temp. Windchill Dew Point Humidity Pressure Visibility Wind Dir Wind Speed Gust Speed Precip Events Conditions
12:54 AM 30.0 °F 23.2 °F 19.0 °F 64% 30.45 in 10.0 mi WNW 6.9 mph - N/A   Clear
1:54 AM 28.9 °F 22.8 °F 19.0 °F 67% 30.46 in 10.0 mi West 5.8 mph - N/A   Clear
2:54 AM 28.0 °F 24.2 °F 19.0 °F 69% 30.47 in 10.0 mi WNW 3.5 mph - N/A   Clear
3:54 AM 28.0 °F 24.2 °F 18.0 °F 66% 30.45 in 10.0 mi West 3.5 mph - N/A   Clear
4:54 AM 27.0 °F 18.0 °F 17.1 °F 66% 30.45 in 10.0 mi West 9.2 mph - N/A   Clear
5:54 AM 27.0 °F 20.5 °F 17.1 °F 66% 30.46 in 10.0 mi West 5.8 mph - N/A   Clear
6:54 AM 27.0 °F - 16.0 °F 63% 30.46 in 10.0 mi Calm Calm - N/A   Partly Cloudy
7:54 AM 27.0 °F 21.6 °F 16.0 °F 63% 30.48 in 10.0 mi West 4.6 mph - N/A   Scattered Clouds
8:54 AM 28.0 °F 18.1 °F 15.1 °F 58% 30.48 in 10.0 mi WNW 11.5 mph - N/A   Scattered Clouds
9:54 AM 30.0 °F 21.7 °F 14.0 °F 51% 30.49 in 10.0 mi WNW 9.2 mph - N/A   Scattered Clouds
10:54 AM 32.0 °F 20.8 °F 12.9 °F 45% 30.48 in 10.0 mi WNW 17.3 mph 23.0 mph N/A   Scattered Clouds
11:54 AM 34.0 °F 25.0 °F 12.9 °F 42% 30.43 in 10.0 mi WNW 12.7 mph - N/A   Partly Cloudy
12:54 PM 37.0 °F 29.8 °F 15.1 °F 41% 30.40 in 10.0 mi West 10.4 mph - N/A   Scattered Clouds
1:54 PM 37.9 °F 32.1 °F 14.0 °F 38% 30.38 in 10.0 mi West 8.1 mph - N/A   Scattered Clouds
2:54 PM 37.9 °F 30.0 °F 14.0 °F 38% 30.38 in 10.0 mi NNW 12.7 mph - N/A   Scattered Clouds
3:54 PM 37.0 °F 28.9 °F 10.9 °F 34% 30.38 in 10.0 mi WNW 12.7 mph - N/A   Partly Cloudy
4:54 PM 35.6 °F 29.9 °F 12.2 °F 38% 30.34 in 10.0 mi West 6.9 mph - N/A   Clear
5:54 PM 33.8 °F 29.6 °F 15.8 °F 48% 30.34 in 10.0 mi WSW 4.6 mph - N/A   Clear
6:54 PM 33.8 °F 28.6 °F 15.8 °F 48% 30.33 in 10.0 mi West 5.8 mph - N/A   Clear
7:54 PM 33.8 °F 28.6 °F 15.8 °F 48% 30.32 in 10.0 mi West 5.8 mph - N/A   Clear
8:54 PM 32.0 °F - 15.8 °F 51% 30.32 in 10.0 mi Calm Calm - N/A   Clear
9:54 PM 28.4 °F 21.2 °F 15.8 °F 59% 30.32 in 10.0 mi West 6.9 mph - N/A   Clear
10:54 PM 30.2 °F 23.4 °F 15.8 °F 55% 30.30 in 10.0 mi West 6.9 mph - N/A   Clear
11:54 PM 30.2 °F 22.6 °F 17.6 °F 60% 30.30 in 10.0 mi WSW 8.1 mph - N/A   Clear